Date String (YYYY-MM-DD hh:mm:ss) UTC,Instrument flags,Ambient pressure (hPa),Sample flow (lpm),Bypass flow (lpm),Sample temperature (°C),Ambient temperature (°C),ASC tube jacket temperature (°C),LED temperature (°C),Box temperature (°C),Sample RH (%),Span deviation,Mass concentration (μg/m³),Mass concentration (μg/m³),Mass concentration (μg/m³)
DateTimeUTC,F1_M11,P_M11,Q1_M11,Q2_M11,T1_M11,T2_M11,T3_M11,T4_M11,T5_M11,U1_M11,ZSPAN_M11,X0_M11,X2_M11,X1_M11
2021-11-11 23:00:00,,0824.1,5.00,0.00,26.5,25.7,00.0,35.4,28.3,12.6,0000.0,0003.71,0000.99,0000.54
2021-11-11 23:01:00,,0824.1,5.00,0.00,26.5,25.7,00.0,35.4,28.3,12.7,0000.0,0003.19,0000.97,0000.53
2021-11-11 23:02:00,,0824.0,5.01,0.00,26.5,25.7,00.0,35.4,28.3,12.7,0000.0,0004.38,0000.96,0000.54
2021-11-11 23:03:00,,0824.0,5.00,0.00,26.5,25.7,00.0,35.4,28.3,12.7,0000.0,0005.57,0000.98,0000.55
2021-11-11 23:04:00,,0823.9,5.00,0.00,26.5,25.7,00.0,35.4,28.2,12.7,0000.0,0005.90,0001.02,0000.57
2021-11-11 23:05:00,,0823.9,5.00,0.00,26.5,25.6,00.0,35.4,28.3,12.8,0000.0,0005.79,0001.05,0000.58
2021-11-11 23:06:00,,0823.9,5.00,0.00,26.5,25.6,00.0,35.4,28.2,12.8,0000.0,0005.78,0001.05,0000.58
2021-11-11 23:07:00,,0823.9,5.00,0.00,26.5,25.6,00.0,35.4,28.2,12.8,0000.0,0005.73,0001.04,0000.59
2021-11-11 23:08:00,,0823.9,5.00,0.00,26.5,25.6,00.0,35.4,28.2,12.8,0000.0,0005.92,0001.10,0000.59
2021-11-11 23:09:00,,0823.9,5.00,0.00,26.4,25.6,00.0,35.5,28.2,12.8,0000.0,0005.93,0001.11,0000.59
2021-11-11 23:10:00,,0823.9,4.99,0.00,26.4,25.6,00.0,35.5,28.2,12.8,0000.0,0005.81,0001.10,0000.60
2021-11-11 23:11:00,,0823.9,5.00,0.00,26.4,25.6,00.0,35.5,28.2,12.7,0000.0,0005.75,0001.08,0000.60
2021-11-11 23:12:00,,0823.9,5.00,0.00,26.4,25.5,00.0,35.4,28.2,12.7,0000.0,0005.71,0001.08,0000.60
2021-11-11 23:13:00,,0824.0,5.00,0.00,26.4,25.5,00.0,35.4,28.1,12.7,0000.0,0004.52,0001.10,0000.60
2021-11-11 23:14:00,,0824.1,5.00,0.00,26.4,25.4,00.0,35.4,28.1,12.8,0000.0,0003.47,0001.11,0000.59
2021-11-11 23:15:00,,0824.0,5.00,0.00,26.4,25.4,00.0,35.4,28.1,12.8,0000.0,0002.91,0001.10,0000.60
2021-11-11 23:16:00,,0824.0,5.00,0.00,26.4,25.4,00.0,35.4,28.1,12.9,0000.0,0002.30,0001.08,0000.60
2021-11-11 23:17:00,,0824.0,5.00,0.00,26.4,25.4,00.0,35.4,28.1,13.1,0000.0,0002.41,0001.04,0000.60
2021-11-11 23:18:00,,0823.9,5.01,0.00,26.4,25.5,00.0,35.4,28.2,13.3,0000.0,0002.50,0001.01,0000.59
2021-11-11 23:19:00,,0824.0,5.00,0.00,26.4,25.5,00.0,35.4,28.2,13.2,0000.0,0002.42,0000.96,0000.57
2021-11-11 23:20:00,,0824.1,4.99,0.00,26.4,25.5,00.0,35.4,28.2,13.2,0000.0,0002.39,0000.92,0000.56
2021-11-11 23:21:00,,0824.1,5.01,0.00,26.4,25.5,00.0,35.4,28.2,13.3,0000.0,0003.52,0000.96,0000.58
2021-11-11 23:22:00,,0823.9,5.00,0.00,26.4,25.6,00.0,35.4,28.3,13.1,0000.0,0003.61,0000.99,0000.59
2021-11-11 23:23:00,,0823.9,5.00,0.00,26.4,25.6,00.0,35.4,28.3,13.1,0000.0,0003.87,0001.06,0000.60
2021-11-11 23:24:00,,0824.1,5.00,0.00,26.4,25.6,00.0,35.4,28.3,13.2,0000.0,0004.15,0001.06,0000.58
2021-11-11 23:25:00,,0824.1,5.00,0.00,26.4,25.6,00.0,35.4,28.3,13.2,0000.0,0004.11,0001.08,0000.59
2021-11-11 23:26:00,,0824.1,5.01,0.00,26.4,25.6,00.0,35.4,28.2,13.1,0000.0,0004.30,0001.12,0000.59
2021-11-11 23:27:00,,0824.0,4.99,0.00,26.4,25.6,00.0,35.4,28.2,13.2,0000.0,0005.13,0001.16,0000.58
2021-11-11 23:28:00,,0824.0,5.01,0.00,26.4,25.6,00.0,35.4,28.2,13.2,0000.0,0007.03,0001.19,0000.57
2021-11-11 23:29:00,,0824.1,4.99,0.00,26.4,25.5,00.0,35.4,28.2,13.2,0000.0,0007.07,0001.20,0000.57
2021-11-11 23:30:00,,0824.1,5.00,0.00,26.4,25.5,00.0,35.4,28.2,13.2,0000.0,0007.14,0001.25,0000.57
2021-11-11 23:31:00,,0824.1,4.99,0.00,26.3,25.5,00.0,35.4,28.1,13.2,0000.0,0007.01,0001.27,0000.57
2021-11-11 23:32:00,,0824.1,5.01,0.00,26.3,25.5,00.0,35.4,28.1,13.2,0000.0,0006.00,0001.24,0000.55
2021-11-11 23:33:00,,0824.2,5.00,0.00,26.3,25.4,00.0,35.4,28.1,13.1,0000.0,0005.88,0001.19,0000.53
2021-11-11 23:34:00,,0824.1,5.00,0.00,26.3,25.4,00.0,35.4,28.1,13.1,0000.0,0005.67,0001.12,0000.52
2021-11-11 23:35:00,,0824.1,5.00,0.00,26.3,25.4,00.0,35.4,28.1,13.1,0000.0,0005.91,0001.11,0000.52
2021-11-11 23:36:00,,0824.2,4.98,0.00,26.3,25.5,00.0,35.4,28.1,13.0,0000.0,0006.33,0001.11,0000.50
2021-11-11 23:37:00,,0824.1,5.01,0.00,26.3,25.4,00.0,35.4,28.1,13.1,0000.0,0006.46,0001.05,0000.48
2021-11-11 23:38:00,,0824.0,5.00,0.00,26.2,25.4,00.0,35.4,28.0,13.1,0000.0,0005.80,0001.03,0000.48
2021-11-11 23:39:00,,0824.1,5.01,0.00,26.2,25.4,00.0,35.3,28.0,12.9,0000.0,0003.87,0001.05,0000.48
2021-11-11 23:40:00,,0824.2,4.99,0.00,26.2,25.4,00.0,35.3,28.0,13.0,0000.0,0003.77,0001.06,0000.48
2021-11-11 23:41:00,,0824.2,4.99,0.00,26.2,25.4,00.0,35.3,28.0,13.1,0000.0,0003.69,0001.04,0000.48
2021-11-11 23:42:00,,0824.3,5.00,0.00,26.2,25.4,00.0,35.3,28.0,13.1,0000.0,0003.80,0001.04,0000.49
2021-11-11 23:43:00,,0824.4,5.01,0.00,26.2,25.4,00.0,35.3,28.0,13.1,0000.0,0003.93,0001.04,0000.49
2021-11-11 23:44:00,,0824.3,4.99,0.00,26.2,25.4,00.0,35.3,28.1,13.2,0000.0,0004.15,0001.11,0000.49
2021-11-11 23:45:00,,0824.3,5.00,0.00,26.3,25.5,00.0,35.3,28.1,13.1,0000.0,0006.47,0001.15,0000.49
2021-11-11 23:46:00,,0824.4,5.00,0.00,26.3,25.5,00.0,35.3,28.1,13.1,0000.0,0007.11,0001.13,0000.50
2021-11-11 23:47:00,,0824.3,5.01,0.00,26.3,25.5,00.0,35.3,28.0,12.9,0000.0,0006.82,0001.12,0000.50
2021-11-11 23:48:00,,0824.2,4.99,0.00,26.3,25.5,00.0,35.3,28.0,12.5,0000.0,0006.53,0001.11,0000.49
2021-11-11 23:49:00,,0824.4,5.00,0.00,26.2,25.4,00.0,35.3,28.0,12.3,0000.0,0007.56,0001.10,0000.49
2021-11-11 23:50:00,,0824.3,5.00,0.00,26.2,25.4,00.0,35.3,28.0,12.4,0000.0,0007.85,0001.08,0000.48
2021-11-11 23:51:00,,0824.2,5.00,0.00,26.2,25.4,00.0,35.3,27.9,12.7,0000.0,0007.89,0001.09,0000.48
2021-11-11 23:52:00,,0824.3,5.00,0.00,26.1,25.3,00.0,35.3,27.9,12.9,0000.0,0007.98,0001.13,0000.48
2021-11-11 23:53:00,,0824.4,5.00,0.00,26.1,25.3,00.0,35.2,27.9,13.0,0000.0,0007.89,0001.14,0000.48
2021-11-11 23:54:00,,0824.5,5.00,0.00,26.1,25.3,00.0,35.2,27.9,12.9,0000.0,0007.79,0001.11,0000.47
2021-11-11 23:55:00,,0824.6,5.01,0.00,26.1,25.3,00.0,35.2,27.9,12.9,0000.0,0007.73,0001.08,0000.46
2021-11-11 23:56:00,,0824.6,5.00,0.00,26.1,25.3,00.0,35.2,27.9,13.1,0000.0,0006.43,0001.07,0000.47
2021-11-11 23:57:00,,0824.4,4.99,0.00,26.1,25.3,00.0,35.2,27.9,12.8,0000.0,0004.60,0001.08,0000.46
2021-11-11 23:58:00,,0824.5,5.01,0.00,26.1,25.3,00.0,35.2,27.8,12.5,0000.0,0004.48,0001.05,0000.45
2021-11-11 23:59:00,,0824.6,5.00,0.00,26.1,25.3,00.0,35.2,27.8,12.4,0000.0,0004.67,0001.06,0000.44
